GW0118 Weather Reports


time (UTC)temp
F
wind
direction
speed
knots
gust
knots
rain 1hr
in
rain 24hr
in
rain mn
in
humidity
%
barometer
mb
20260506193105 55 116 1.7 3.5 0.00 0.00 0.00 52 1011.6
20260506191559 56 112 0.0 2.6 0.00 0.00 0.00 50 1011.5
20260506184556 60 6 2.6 4.3 0.00 0.00 0.00 44 1011.3
20260506183107 61 345 0.9 4.3 0.00 0.00 0.00 41 1011.3
20260506181603 62 61 0.9 2.6 0.00 0.00 0.00 38 1011.1
20260506174557 63 277 0.9 2.6 0.00 0.00 0.00 34 1011.1
20260506173109 63 269 0.0 2.6 0.00 0.00 0.00 33 1011.2
20260506171559 61 294 0.9 4.3 0.00 0.00 0.00 39 1011.2
20260506170107 61 293 1.7 4.3 0.00 0.00 0.00 39 1011.4
20260506164625 61 264 1.7 6.1 0.00 0.00 0.00 38 1011.4
20260506163109 62 279 0.0 5.2 0.00 0.00 0.00 36 1011.4
20260506161557 61 255 2.6 5.2 0.00 0.00 0.00 38 1011.5
20260506160122 60 58 2.6 5.2 0.00 0.00 0.00 37 1011.6
20260506154558 60 198 0.0 3.5 0.00 0.00 0.00 40 1011.7
20260506153058 61 208 0.9 3.5 0.00 0.00 0.00 42 1011.7
20260506151604 60 63 0.9 1.7 0.00 0.00 0.00 40 1011.8
20260506150108 59 259 0.0 4.3 0.00 0.00 0.00 43 1012.0
20260506144610 59 29 2.6 7.0 0.00 0.00 0.00 43 1012.0
20260506143101 59 255 0.9 5.2 0.00 0.00 0.00 41 1012.1
20260506141600 59 356 2.6 9.6 0.00 0.00 0.00 41 1012.2
20260506140100 59 102 2.6 10.4 0.00 0.00 0.00 43 1012.4
20260506134601 59 28 2.6 8.7 0.00 0.06 0.00 42 1012.6
20260506133115 58 0 5.2 7.8 0.00 0.06 0.00 43 1012.8
20260506131616 58 320 4.3 10.4 0.00 0.06 0.00 44 1012.9
20260506130101 58 263 0.9 6.1 0.00 0.06 0.00 42 1012.9
20260506124601 56 0 0.9 7.0 0.00 0.07 0.00 45 1013.2
20260506123100 57 120 4.3 7.8 0.00 0.07 0.00 48 1013.1
20260506121602 55 0 3.5 7.8 0.00 0.07 0.00 50 1013.3
20260506120110 55 126 1.7 7.0 0.00 0.07 0.00 53 1013.4
20260506114600 55 0 0.9 6.1 0.00 0.07 0.00 54 1013.5
20260506113100 54 184 1.7 6.1 0.00 0.07 0.00 54 1013.6
20260506111559 53 265 4.3 7.8 0.00 0.07 0.00 56 1013.8
20260506110113 54 28 3.5 6.1 0.00 0.07 0.00 57 1013.8
20260506104615 53 10 1.7 4.3 0.00 0.07 0.00 60 1013.9
20260506103100 53 31 1.7 4.3 0.00 0.07 0.00 59 1013.9
20260506101600 52 50 1.7 5.2 0.00 0.07 0.00 60 1014.0
20260506100113 51 252 4.3 9.6 0.00 0.07 0.00 63 1014.1
20260506094604 51 53 3.5 7.8 0.00 0.07 0.00 63 1014.0
20260506093101 50 86 6.1 9.6 0.00 0.07 0.00 65 1014.1
20260506091607 49 2 3.5 10.4 0.00 0.07 0.00 66 1013.9
20260506090105 48 8 5.2 10.4 0.00 0.07 0.00 67 1014.0
20260506084635 48 63 4.3 10.4 0.00 0.07 0.00 67 1013.9
20260506083111 48 44 5.2 9.6 0.00 0.07 0.00 67 1013.8
20260506081602 47 49 4.3 9.6 0.00 0.07 0.00 71 1014.0
20260506080105 46 46 3.5 9.6 0.00 0.07 0.00 72 1013.9
20260506073100 45 39 5.2 10.4 0.00 0.07 0.00 76 1013.7
20260506071600 44 63 5.2 9.6 0.00 0.07 0.00 81 1013.7
20260506061559 39 116 0.9 2.6 0.00 0.07 0.00 86 1013.6
20260506044559 36 65 1.7 3.5 0.00 0.07 0.00 91 1013.0
20260506043058 35 104 0.9 1.7 0.00 0.07 0.00 91 1012.9
20260506041608 35 0 0.0 1.7 0.00 0.07 0.00 92 1013.0
20260506040100 35 62 0.9 3.5 0.00 0.07 0.00 91 1013.1
20260506034559 36 95 0.9 4.3 0.00 0.07 0.00 91 1013.2
20260506033101 36 0 0.0 1.7 0.00 0.07 0.00 91 1013.1
20260506031558 36 0 0.9 3.5 0.00 0.07 0.00 91 1013.1
20260506030059 36 52 0.0 2.6 0.00 0.07 0.00 91 1013.3
20260506024602 36 69 0.0 1.7 0.00 0.07 0.00 90 1013.3
20260506023109 37 48 0.0 1.7 0.00 0.07 0.00 90 1013.4
20260506021617 37 127 0.9 1.7 0.00 0.07 0.00 90 1013.4
20260506020055 37 0 0.0 0.9 0.00 0.07 0.00 90 1013.5
20260506014557 37 0 0.0 0.9 0.00 0.07 0.00 90 1013.5
20260506013108 38 120 0.0 0.9 0.00 0.07 0.00 89 1013.6
20260506011616 38 0 0.0 0.0 0.00 0.07 0.00 88 1013.6
20260506010059 39 0 0.0 1.7 0.00 0.07 0.00 88 1013.7
20260506004558 39 0 0.0 2.6 0.00 0.07 0.00 88 1013.8
20260506003057 38 47 0.0 1.7 0.00 0.07 0.00 87 1013.7
20260506001559 39 113 0.0 0.9 0.00 0.07 0.00 86 1013.9
20260506000100 40 48 0.9 2.6 0.00 0.07 0.00 85 1013.7
20260505234559 40 106 0.9 3.5 0.00 0.07 0.00 85 1013.8
20260505233105 40 131 1.7 4.3 0.00 0.07 0.00 85 1013.9
20260505231611 40 56 2.6 7.0 0.00 0.07 0.00 85 1014.1
20260505230058 41 58 3.5 6.1 0.00 0.07 0.00 83 1014.1
20260505224603 42 101 0.9 4.3 0.00 0.07 0.00 81 1014.2
20260505223101 43 52 2.6 4.3 0.00 0.07 0.00 80 1014.1
20260505221604 42 55 1.7 4.3 0.00 0.07 0.00 81 1014.2
20260505214601 44 42 3.5 7.0 0.00 0.07 0.07 78 1014.3
20260505213059 44 54 4.3 7.8 0.00 0.07 0.07 77 1014.3
20260505211559 45 43 1.7 6.1 0.00 0.07 0.07 76 1014.4
20260505210059 45 50 5.2 10.4 0.00 0.07 0.07 75 1014.2
20260505204600 46 319 1.7 5.2 0.00 0.07 0.07 74 1014.1
20260505203121 47 352 4.3 7.8 0.00 0.07 0.07 72 1013.9
20260505201605 48 333 7.0 11.3 0.00 0.07 0.07 69 1013.6
20260505194600 50 336 2.6 7.0 0.00 0.07 0.07 65 1013.3